This demonstration page uses our WeatherBlox Daily Observations layout. Learn more.

Left ArrowRight Arrow

38.88101, -77.10428

Hourly Observations for May 2, 2016

Temp ( °F °C ) Dew Point ( °F °C ) Humidity (%) Winds ( mph kmh ) Pressure ( in mb ) Visibility ( mi km ) Precip ( " mm )
12:52 am 00:52 Cloudy with Light Rain 56 13.3 54 12.2 93 93 N N/A 30.01 1016 10 16 N/A
1:52 am 01:52 Cloudy with Light Rain 56 13.3 54 12.2 93 93 ESE 6 9 30.00 1016 10 16 0.09 2.29
2:52 am 02:52 Cloudy 56 13.3 54 12.2 93 93 E 3 6 29.98 1015 10 16 N/A
3:37 am 03:37 Cloudy 55 12.8 54 12.2 96 96 NE 8 13 29.94 1014 8 13 N/A
3:52 am 03:52 Cloudy 55 12.8 54 12.2 96 96 NNE 8 13 29.95 1014 8 13 N/A
4:50 am 04:50 Cloudy with Mist and Fog 55 13 54 12 94 94 E 3 6 29.94 1014 2 3 N/A
4:52 am 04:52 Cloudy with Mist and Fog 55 12.8 54 12.2 96 96 E 3 6 29.95 1014 2 3 N/A
5:12 am 05:12 Cloudy with Drizzle 55 13 54 12 94 94 N N/A 29.97 1015 2 3 N/A
5:52 am 05:52 Mostly Cloudy with Drizzle 55 12.8 54 12.2 96 96 NNE 5 7 29.97 1015 2 2 0.01 0.25
6:08 am 06:08 Mostly Cloudy with Drizzle 55 13 54 12 94 94 NNE 6 9 29.97 1015 1 2 N/A
6:52 am 06:52 Cloudy with Drizzle 55 12.8 54 12.2 96 96 N N/A 29.96 1015 2 2 0.01 0.25
7:21 am 07:21 Cloudy with Drizzle 56 13.3 54 12.2 93 93 NE 3 6 29.97 1015 2 3 N/A
7:52 am 07:52 Cloudy with Drizzle 56 13.3 55 12.8 97 97 N 9 15 29.99 1016 2 3 N/A
8:17 am 08:17 Cloudy with Drizzle 56 13.3 55 12.8 97 97 NE 7 11 30.00 1016 2 3 N/A
8:31 am 08:31 Cloudy with Drizzle 56 13.3 55 12.8 97 97 NNE 3 6 30.00 1016 2 3 N/A
8:48 am 08:48 Cloudy with Mist and Fog 55 13 55 13 100 100 E 5 7 29.97 1015 4 6 N/A
8:52 am 08:52 Cloudy with Mist and Fog 56 13.3 55 12.8 97 97 E 6 9 29.98 1015 4 6 N/A
9:17 am 09:17 Cloudy 58 14.4 56 13.3 93 93 S 7 11 29.97 1015 7 11 N/A
9:52 am 09:52 Cloudy 58 14.4 56 13.3 93 93 S 6 9 29.97 1015 8 13 N/A
10:52 am 10:52 Cloudy 60 15.6 58 14.4 93 93 S 6 9 29.96 1015 10 16 N/A
11:25 am 11:25 Cloudy 61 16.1 58 14.4 90 90 SE 5 7 29.97 1015 10 16 N/A
11:52 am 11:52 Cloudy 63 17.2 60 15.6 90 90 S 9 15 29.95 1014 10 16 N/A
12:03 pm 12:03 Cloudy 63 17 59 15 88 88 SSE 8 13 29.94 1014 10 16 N/A
5:52 pm 17:52 Mostly Cloudy 75 23.9 65 18.3 71 71 N N/A 29.83 1010 10 16 N/A
6:16 pm 18:16 Mostly Cloudy with Thunderstorms 74 23.3 65 18.3 74 74 ESE 5 7 29.83 1010 10 16 N/A
6:52 pm 18:52 Cloudy with Thunderstorms 74 23.3 66 18.9 76 76 N N/A 29.83 1010 6 10 0.02 0.51
7:08 pm 19:08 Cloudy with Thunderstorms 73 23 66 19 78 78 S 3 6 29.83 1010 10 16 N/A
7:23 pm 19:23 Cloudy with Thunderstorms 71 21.7 66 18.9 84 84 SE 8 13 29.83 1010 10 16 0.02 0.51
7:52 pm 19:52 Partly Cloudy with Heavy Rain 71 21.7 68 20 90 90 SSW 7 11 29.84 1011 3 4 0.12 3.05
7:56 pm 19:56 Cloudy with Strong Thunderstorms 72 22 70 21 94 94 SSW 3 6 29.83 1010 2 3 N/A
7:58 pm 19:58 Cloudy with Strong Thunderstorms 70 21 70 21 100 100 N N/A 29.83 1010 1 1 N/A
8:01 pm 20:01 Cloudy with Strong Thunderstorms 70 21.1 69 20.6 97 97 undefined N/A 29.83 1010 1 1 0.31 7.87
8:07 pm 20:07 Cloudy with Strong Thunderstorms 66 18.9 63 17.2 90 90 ENE 13 20 29.83 1010 1 1 0.78 19.81
8:12 pm 20:12 Windy with Storms Likely 66 19 63 17 88 88 ENE 20 31 29.83 1010 1 2 N/A
8:19 pm 20:19 Cloudy with Thunderstorms 66 18.9 62 16.7 87 87 E 13 20 29.83 1010 6 10 0.93 23.62
8:25 pm 20:25 Cloudy with Strong Thunderstorms 66 18.9 63 17.2 90 90 ENE 17 28 29.83 1010 6 10 0.96 24.38
8:29 pm 20:29 Cloudy with Thunderstorms 66 18.9 63 17.2 90 90 ENE 17 28 29.83 1010 6 10 0.99 25.15
8:41 pm 20:41 Cloudy with Light Rain 66 18.9 63 17.2 90 90 E 10 17 29.83 1010 10 16 0.99 25.15
8:52 pm 20:52 Cloudy 68 20 60 15.6 76 76 E 22 35 29.80 1009 10 16 0.99 25.15
9:13 pm 21:13 Cloudy with Light Rain 65 18.3 61 16.1 87 87 NNW 28 44 29.91 1013 10 16 N/A
9:52 pm 21:52 Cloudy 62 16.7 58 14.4 86 86 NNE 14 22 29.88 1012 10 16 N/A
10:52 pm 22:52 Cloudy with Light Rain 62 16.7 58 14.4 86 86 SSE 3 6 29.87 1012 10 16 N/A

Powered by AerisWeather